Location: Elliott Corner
(37.4627°N, 119.7746°W)
Time: 21:06:05
(UTC+00:00)

SL-16 R/B - Pass Details

Date: 10 September 2024
Orbit: 842 x 845 km, 71.0° (Epoch: 11 October)

Event Time Altitude Azimuth Distance (km) Brightness Sun altitude
Rises 12:26:55 0° 324° (NW) 3,409 5.2 -14.5°
Reaches altitude 10° 12:29:45 10° 311° (NW) 2,469 4.3 -14.0°
Maximum altitude 12:34:16 25° 258° (WSW) 1,641 3.1 -13.1°
Drops below altitude 10° 12:38:46 10° 205° (SSW) 2,456 4.2 -12.3°
Sets 12:41:36 0° 192° (SSW) 3,387 5.1 -11.7°
